Regional Weather Roundup
Issued by NWS Newport/Morehead, NC

Current Version | Previous Version | Text Only | Print | Product List | Glossary On
Versions: 1 2 3 4 5 6 7 8 9 10 11 12 13 14 15 16 17 18 19 20 21 22 23 24 25 26 27 28 29 30 31 32 33 34 35 36 37 38 39 40 41 42 43 44 45 46 47 48 49 50
000 ASUS42 KMHX 271225 RWRMHX WEATHER ROUNDUP FOR EASTERN NORTH CAROLINA NATIONAL WEATHER SERVICE NEWPORT/MOREHEAD CITY NC 800 AM EDT SAT MAY 27 2017 NOTE: "FAIR" INDICATES FEW OR NO CLOUDS BELOW 12,000 FEET WITH NO SIGNIFICANT WEATHER AND/OR OBSTRUCTIONS TO VISIBILITY NCZ015>017-031-032-045>047-102-103-271300- NORTH COAST CITY SKY/WX TMP DP RH WIND PRES REMARKS EDENTON SUNNY 73 62 69 CALM 29.95R ELIZABETH CITY SUNNY 71 64 78 SW6 29.93S KITTY HAWK SUNNY 72 61 67 CALM 29.92F MANTEO SUNNY 72 62 71 W8 29.94F $$ NCZ045>047-081-094-103-104-271300- CENTRAL COAST CITY SKY/WX TMP DP RH WIND PRES REMARKS FRISCO SUNNY 75 66 73 SW9 29.96S $$ NCZ095-097-098-100-101-271300- SOUTHERN COAST CITY SKY/WX TMP DP RH WIND PRES REMARKS BEAUFORT SUNNY 74 64 71 SW6 29.97S CEDAR ISLAND NOT AVBL JACKSONVILLE SUNNY 70 62 76 SW8 29.97S PINEY ISLAND SUNNY N/A N/A N/A SW7 29.96S WILMINGTON SUNNY 70 61 73 SW6 29.99R $$ NCZ011>013-027>030-043-044-078>080-089-090>093-098-271300- COASTAL PLAIN CITY SKY/WX TMP DP RH WIND PRES REMARKS AHOSKIE NOT AVBL CLINTON SUNNY 67 61 80 S3 29.97S ELIZABETHTOWN SUNNY 69 60 73 SW6 29.98R GOLDSBORO NOT AVBL GREENVILLE SUNNY 68 61 77 SW6 29.97S HAVELOCK SUNNY 71 62 73 SW6 29.97S KENANSVILLE SUNNY 68 61 77 SW6 29.97S KINSTON SUNNY 70 61 73 CALM 29.97R NEW BERN SUNNY 69 62 78 SW6 29.98R RICHLANDS SUNNY 68 62 81 SW5 29.98S ROCKY MOUNT SUNNY 67 62 84 S5 29.95S WASHINGTON SUNNY 70 62 74 W6 29.95S WHITEVILLE SUNNY 69 61 76 SW3 29.98R $$ AMZ130-135-150-152-154-156-158-170-250-252-270-ANZ085-086-088-633-658-670-271300- MARINE OBSERVATIONS STATION/POSITION TIME TEMP WIND PRES WAVE SWELL AIR SEA DIR/SP/G HT/PER HT/PER (UTC) (F) (DEG/KT/KT) (MB) (FT/S) (FT/S) CHESAPEAKE LIGHT NOT AVBL 64 E VA BEACH 1150 65 62 80/ 2/ 4 1014.1 3/ 8 3/ 8 DUCK 1200 72 63 230/ 9/ 11 1013.1 2 E DUCK 1200 63 N/A 1/ 8 OREGON INLET 1200 72 68 220/ 10/ 11 1013.7 13E OREGON INLT 1148 66 N/A 3/ 6 2/ 6 HATTERAS CG 1200 74 72 230/ 6/ 10 1014.3 DIAMOND BUOY 1150 76 76 250/ 10/ 12 1014.4 4/ 6 3/ 6 CAPE LOOKOUT 1200 74 230/ 6/ 8 1014.7 BEAUFORT LAB 1200 75 71 220/ 3/ 5 1014.1 30 SE NEW RVR IN 1208 76 77 250/ 10/ 12 1015.3 30 SE NEW RVR IN 1143 77 N/A 4/ 6 27 SE WRIGHTSVLE 1208 75 77 230/ 10/ 14 1014.9 5 SE WRIGHTSVLE 1208 73 74 240/ 10/ 14 1015.3 225 S CAPE HAT 1150 76 77 280/ 10/ 12 1017.1 4/ 7 3/ 7 41 SE CHARLESTON 1210 75 74 240/ 12/ 14 1016.6 $$

USA.gov is the U.S. government's official web portal to all federal, state and local government web resources and services.